Regional Weather Roundup
Issued by NWS

Home | Current Version | Previous Version | Text Only | Print | Product List | Glossary Off
Versions: 1 2 3 4 5 6 7 8 9 10 11 12 13 14 15 16 17 18 19 20 21 22 23 24 25 26 27 28 29 30 31 32 33 34 35 36 37 38 39 40 41 42 43 44 45 46 47 48 49 50

000
ASUS43 KIND 200509
RWRIN

WEATHER ROUNDUP FOR INDIANA
NATIONAL WEATHER SERVICE INDIANAPOLIS IN
100 AM EDT WED SEP 20 2017

NOTE: "FAIR" INDICATES FEW OR NO CLOUDS BELOW 12,000 FEET WITH NO
SIGNIFICANT WEATHER AND/OR OBSTRUCTIONS TO VISIBILITY.

* - STATION DOES NOT REPORT WEATHER SUCH AS PRECIPITATION OR FOG.

+ - STATION NOT QUALITY CONTROLLED BY THE NATIONAL WEATHER SERVICE.
    USE DATA WITH CAUTION...ESPECIALLY DEWPOINT AND RELATIVE
    HUMIDITY OBSERVATIONS.

INZ001>003-010>013-019-020-200600-
NORTHWEST INDIANA

CITY           SKY/WX    TMP DP  RH WIND       PRES   REMARKS
GARY /AIRPORT/ FOG       61  59  94 CALM      29.93F VSB 1/4
KNOX *+        CLOUDY    59  59 100 CALM      29.94S VSB 1/4
LA PORTE +     FOG       61  60  99 CALM      29.95S VSB 1/4
MICHIGAN CITY+ MOCLDY    59  59 100 CALM      29.95S FOG
MONTICELLO +   CLEAR     65  63  96 CALM      29.93S
RENSSELAER +   CLEAR     63  59  88 NE5       29.94S FOG
VALPARAISO     FOG       62  62 100 CALM      29.94S VSB 1/4

$$

LMZ046-743>745-200600-
SOUTHERN LAKE MICHIGAN

STATION/POSITION TIME  TEMP    WIND        PRES    WAVE
                       AIR SEA DIR/SP/G            HT
                 (UTC) (F)     (DEG/KT/KT) (MB)    (FT)
BURNS HARBOR     0440   66      80/  2/  4 1013.9F
MICHIGAN CITY    0440   65     120/  4/  5   N/A
5NW MICH CITY    0500   67 69  140/  4/  6   N/A     1

$$

INZ004-005-014>016-021>024-200600-
NORTH CENTRAL INDIANA

CITY           SKY/WX    TMP DP  RH WIND       PRES   REMARKS
GOSHEN         CLOUDY    66  63  90 CALM      29.94F FOG
LOGANSPORT +     N/A     61  61 100 CALM      29.95S FOG
PERU/GRISSOM   CLEAR     64  64 100 SE5       29.94R
ROCHESTER +    CLEAR     64  64 100 CALM      29.95S
SOUTH BEND     CLOUDY    63  63 100 CALM      29.95S
WARSAW +       FOG       64  64 100 CALM      29.94F VSB 1

$$

INZ006>009-017-018-025>027-200600-
NORTHEAST INDIANA

CITY           SKY/WX    TMP DP  RH WIND       PRES   REMARKS
AUBURN +       CLOUDY    66  64  94 CALM      29.96S FOG
FORT WAYNE     FOG       64  62  93 CALM      29.96S VSB 3/4
HUNTINGTON +   PTCLDY    66  64  96 S3        29.95S FOG
KENDALLVILLE + CLOUDY    67  67 100 S6        29.96S FOG

$$

INZ028-029-035-036-043>045-051>053-200600-
WEST CENTRAL INDIANA

CITY           SKY/WX    TMP DP  RH WIND       PRES   REMARKS
CRAWFORDSVL +  CLEAR     63  63 100 CALM      29.94S FOG
GREENCASTLE +  CLEAR     64  64 100 CALM      29.95S FOG
LAFAYETTE      CLEAR     64  64 100 CALM      29.93S FOG
TERRE HAUTE    CLEAR     65  63  93 CALM      29.93S

$$

INZ030>032-037>040-046>048-054>057-064-065-200600-
CENTRAL INDIANA

CITY           SKY/WX    TMP DP  RH WIND       PRES   REMARKS
CP ATTERBURY + CLEAR     64  63  94 CALM      29.96S
FRANKFORT +    CLOUDY    65  64  96 CALM      29.96S FOG
GREENWOOD *+   CLEAR     71  68  92 S3        29.96S
INDIANAPOLIS   PTCLDY    69  66  90 SE5       29.95R
-EAGLE CREEK   CLEAR     69  66  90 CALM      29.95R
KOKOMO +       MOCLDY    64  63  96 SE3       29.95S
MT COMFORT *+    N/A    N/A N/A N/A MISG        N/A
SHELBYVILLE    CLEAR     65  61  87 SE3       29.95S
ZIONSVILLE +   PTCLDY    64  64  99 CALM      29.96S FOG

$$

INZ033-034-041-042-049-050-058-059-200600-
EAST CENTRAL INDIANA

CITY           SKY/WX    TMP DP  RH WIND       PRES   REMARKS
MUNCIE         CLEAR     70  66  87 S5        29.95F
RICHMOND +     CLOUDY    63  63 100 S6        29.98F FOG

$$

INZ060-061-067>069-081>083-085>088-200600-
SOUTHWEST INDIANA

CITY           SKY/WX    TMP DP  RH WIND       PRES   REMARKS
EVANSVILLE     CLEAR     70  68  93 CALM      29.94S FOG
HUNTINGBURG +    N/A    N/A N/A N/A MISG        N/A
WASHINGTON +   CLEAR     71  69  94 S7        29.93S

$$

INZ062-063-066-070>080-084-089>092-200600-
SOUTH CENTRAL AND SOUTHEAST INDIANA

CITY           SKY/WX    TMP DP  RH WIND       PRES   REMARKS
BLOOMINGTON    CLEAR     68  65  90 SE5       29.95S
MADISON *+     MOCLDY    64  64 100 CALM      29.99S VSB<1/4
NORTH VERNON + CLEAR     63  63 100 CALM      29.97S FOG

$$





USA.gov is the U.S. government's official web portal to all federal, state and local government web resources and services.